IRIDIUM 106 1 41917U 17003A 26161.18840503 .00000021 00000+0 46206-6 0 9994 2 41917 86.3963 91.4818 0001934 82.2196 277.9220 14.34217752492207 IRIDIUM 103 1 41918U 17003B 26160.89664655 -.00000008 00000+0 -98161-5 0 9997 2 41918 86.3961 91.5035 0002332 80.1040 280.0419 14.34216870492188 IRIDIUM 109 1 41919U 17003C 26161.18206338 .00000023 00000+0 10578-5 0 9992 2 41919 86.3963 91.4438 0002312 83.7848 276.3611 14.34217793492198 IRIDIUM 102 1 41920U 17003D 26161.08058195 .00000062 00000+0 15151-4 0 9993 2 41920 86.3960 91.4097 0002269 86.4083 273.7372 14.34217625492267 IRIDIUM 105 1 41921U 17003E 26160.48103303 .00000178 00000+0 56392-4 0 9999 2 41921 86.3971 60.0919 0002533 86.3381 273.8105 14.34221457494039 IRIDIUM 104 1 41922U 17003F 26161.16303648 .00000177 00000+0 56167-4 0 9999 2 41922 86.3962 91.4177 0002542 83.1662 276.9823 14.34217494492261 IRIDIUM 114 1 41923U 17003G 26161.09960984 .00000016 00000+0 -13703-5 0 9997 2 41923 86.3960 91.4276 0002285 82.3866 277.7589 14.34217559492238 IRIDIUM 108 1 41924U 17003H 26161.19766800 .00000012 00000+0 -28499-5 0 9994 2 41924 86.3962 59.6828 0002146 86.7222 273.4220 14.34217308494105 IRIDIUM 112 1 41925U 17003J 26161.08692429 .00000047 00000+0 98363-5 0 9992 2 41925 86.3958 91.2752 0002375 84.9871 275.1596 14.34217234492250 IRIDIUM 111 1 41926U 17003K 26161.07424268 .00000179 00000+0 56979-4 0 9998 2 41926 86.3961 91.3508 0002304 82.2629 277.8829 14.34215160492231 IRIDIUM 113 1 42803U 17039A 26160.98443561 .00000053 00000+0 11869-4 0 9998 2 42803 86.3966 325.1904 0002309 89.8107 270.3354 14.34217557470158 IRIDIUM 123 1 42804U 17039B 26160.95614254 .00000121 00000+0 36238-4 0 9998 2 42804 86.3973 356.6608 0002091 84.1418 276.0016 14.34218751468914 IRIDIUM 120 1 42805U 17039C 26161.18738572 .00000330 00000+0 11071-3 0 9994 2 42805 86.3954 324.8888 0001989 93.7953 266.3471 14.34213733470179 IRIDIUM 115 1 42806U 17039D 26161.18548796 .00000312 00000+0 86673-4 0 9993 2 42806 86.4491 325.0175 0002005 86.9576 273.1854 14.43280934473254 IRIDIUM 118 1 42807U 17039E 26161.26693230 -.00000110 00000+0 -46497-4 0 9995 2 42807 86.3967 356.5290 0002136 87.7123 272.4317 14.34217193468955 IRIDIUM 117 1 42808U 17039F 26161.28596028 .00000045 00000+0 88327-5 0 9999 2 42808 86.3972 356.4788 0002143 85.9054 274.2386 14.34217641468981 IRIDIUM 126 1 42809U 17039G 26161.24156090 .00000059 00000+0 14079-4 0 9994 2 42809 86.3970 356.5481 0002201 84.8330 275.3117 14.34217585468959 IRIDIUM 124 1 42810U 17039H 26160.63398863 .00000290 00000+0 80293-4 0 9992 2 42810 86.4478 293.5176 0002206 91.9481 268.1973 14.43281680474029 IRIDIUM 128 1 42811U 17039J 26161.16253129 .00000029 00000+0 33762-5 0 9997 2 42811 86.3969 28.0873 0001888 85.6098 274.5313 14.34217589468971 IRIDIUM 121 1 42812U 17039K 26161.26058932 .00000165 00000+0 51696-4 0 9990 2 42812 86.3971 356.5679 0002131 90.3240 269.8200 14.34216985468838 IRIDIUM 133 1 42955U 17061A 26161.12447245 .00000089 00000+0 24863-4 0 9998 2 42955 86.3977 28.2210 0002128 85.4212 274.7227 14.34216957453765 IRIDIUM 100 1 42956U 17061B 26161.11813144 .00000071 00000+0 18179-4 0 9997 2 42956 86.3973 28.1424 0002128 85.6984 274.4455 14.34218406453767 IRIDIUM 122 1 42957U 17061C 26161.08642017 .00000026 00000+0 22768-5 0 9993 2 42957 86.3973 28.1560 0002198 84.4118 275.7329 14.34217717453760 IRIDIUM 129 1 42958U 17061D 26161.11179063 .00000084 00000+0 22817-4 0 9992 2 42958 86.3976 28.2122 0002423 87.7482 272.3992 14.34217912453788 IRIDIUM 119 1 42959U 17061E 26161.14984670 .00000032 00000+0 45332-5 0 9995 2 42959 86.3976 28.1922 0002269 84.2706 275.8748 14.34217630453802 IRIDIUM 107 1 42960U 17061F 26161.09910462 -.00000006 00000+0 -91247-5 0 9998 2 42960 86.3971 28.2344 0001942 79.9551 280.1864 14.34217503453801 IRIDIUM 132 1 42961U 17061G 26161.03567821 .00000066 00000+0 16419-4 0 9991 2 42961 86.3977 28.2405 0002249 86.0901 274.0552 14.34218289453791 IRIDIUM 136 1 42962U 17061H 26161.13716283 .00000226 00000+0 73670-4 0 9991 2 42962 86.3976 28.2048 0002245 84.0810 276.0642 14.34215116453829 IRIDIUM 139 1 42963U 17061J 26161.14350337 .00000085 00000+0 23412-4 0 9999 2 42963 86.3976 28.2641 0002058 85.7220 274.4211 14.34217728453830 IRIDIUM 125 1 42964U 17061K 26161.13081916 -.00000051 00000+0 -25288-4 0 9991 2 42964 86.3974 28.3298 0002309 74.2590 285.8860 14.34217307453840 IRIDIUM 135 1 43070U 17083A 26161.17471233 .00000013 00000+0 -22548-5 0 9997 2 43070 86.3957 324.9480 0002039 91.6062 268.5368 14.34217645443143 IRIDIUM 138 1 43071U 17083B 26161.20008386 .00000117 00000+0 34858-4 0 9997 2 43071 86.3977 324.6318 0002390 88.0703 272.0767 14.34217882443130 IRIDIUM 116 1 43072U 17083C 26160.95906430 .00000047 00000+0 98132-5 0 9994 2 43072 86.3959 325.0242 0001881 94.9084 265.2327 14.34217476443139 IRIDIUM 130 1 43073U 17083D 26160.92735019 -.00000109 00000+0 -46067-4 0 9995 2 43073 86.3963 325.3121 0001843 88.4845 271.6562 14.34217599443076 IRIDIUM 151 1 43074U 17083E 26161.18105530 .00000045 00000+0 90817-5 0 9994 2 43074 86.3962 324.9890 0002113 91.8008 268.3430 14.34217586443134 IRIDIUM 134 1 43075U 17083F 26161.14934216 -.00000007 00000+0 -95481-5 0 9994 2 43075 86.3958 325.0101 0001979 89.5257 270.6166 14.34217539443091 IRIDIUM 137 1 43076U 17083G 26161.16202742 .00000038 00000+0 63292-5 0 9996 2 43076 86.3963 325.0974 0002054 103.1293 257.0132 14.34217442443167 IRIDIUM 141 1 43077U 17083H 26161.15568520 .00000043 00000+0 84292-5 0 9994 2 43077 86.3960 324.9313 0002207 90.8746 269.2702 14.34217646443169 IRIDIUM 153 1 43078U 17083J 26161.10786385 .00000014 00000+0 -20329-5 0 9991 2 43078 86.3955 293.4314 0002215 90.8601 269.2849 14.34217568444261 IRIDIUM 131 1 43079U 17083K 26161.21276841 -.00000017 00000+0 -13258-4 0 9991 2 43079 86.3961 325.0929 0002090 91.9570 268.1865 14.34217234443109 IRIDIUM 144 1 43249U 18030A 26161.11420605 -.00000012 00000+0 -11201-4 0 9992 2 43249 86.3950 293.3579 0001953 95.3331 264.8087 14.34217280429120 IRIDIUM 149 1 43250U 18030B 26161.12054882 .00000019 00000+0 -36630-6 0 9996 2 43250 86.3950 293.3224 0002129 93.5013 266.6427 14.34217633429144 IRIDIUM 157 1 43251U 18030C 26161.06980832 .00000024 00000+0 16424-5 0 9996 2 43251 86.3953 293.3964 0002186 94.1258 266.0188 14.34217640429113 IRIDIUM 140 1 43252U 18030D 26161.08883560 .00000012 00000+0 -28520-5 0 9997 2 43252 86.3953 293.4013 0002014 92.8739 267.2688 14.34217548429170 IRIDIUM 145 1 43253U 18030E 26160.72730625 .00000121 00000+0 35989-4 0 9997 2 43253 86.3953 293.5245 0001903 97.5750 262.5662 14.34218236429052 IRIDIUM 146 1 43254U 18030F 26161.12689115 .00000013 00000+0 -24562-5 0 9997 2 43254 86.3953 293.3698 0001973 96.0619 264.0802 14.34217513429126 IRIDIUM 148 1 43255U 18030G 26161.09517844 -.00000019 00000+0 -13890-4 0 9991 2 43255 86.3953 293.4261 0002085 97.2542 262.8891 14.34217215429153 IRIDIUM 142 1 43256U 18030H 26161.06346405 .00000069 00000+0 17411-4 0 9998 2 43256 86.3951 293.3284 0002036 96.5609 263.5818 14.34218196429110 IRIDIUM 150 1 43257U 18030J 26161.10152083 .00000034 00000+0 51373-5 0 9999 2 43257 86.3955 293.4287 0002113 92.6326 267.5112 14.34217795429146 IRIDIUM 143 1 43258U 18030K 26161.08249334 -.00000148 00000+0 -60088-4 0 9993 2 43258 86.3956 293.5292 0001952 94.6802 265.4617 14.34216865429072 IRIDIUM 161 1 43478U 18047C 26161.09725184 .00000276 00000+0 75938-4 0 9998 2 43478 86.4482 91.4353 0002552 87.2898 272.8595 14.43278971424117 IRIDIUM 152 1 43479U 18047D 26161.19474857 .00000016 00000+0 -15234-5 0 9995 2 43479 86.3959 91.2558 0002260 83.8600 276.2854 14.34217613421489 IRIDIUM 147 1 43480U 18047E 26161.06155383 .00000043 00000+0 83335-5 0 9999 2 43480 86.3959 91.3164 0002138 85.0172 275.1268 14.34217606421464 IRIDIUM 110 1 43481U 18047F 26161.06789747 .00000002 00000+0 -64460-5 0 9991 2 43481 86.3959 91.4054 0002469 85.2415 274.9063 14.34217443421451 IRIDIUM 162 1 43482U 18047G 26161.09095573 .00000283 00000+0 78016-4 0 9993 2 43482 86.4480 91.3291 0002338 83.1332 277.0135 14.43277638424105 IRIDIUM 160 1 43569U 18061A 26161.15326952 .00000004 00000+0 -55733-5 0 9994 2 43569 86.3964 59.7381 0002160 86.3436 273.8007 14.34217516412364 IRIDIUM 166 1 43570U 18061B 26161.17863990 .00000187 00000+0 59649-4 0 9996 2 43570 86.3968 59.6784 0002141 85.1990 274.9451 14.34217639412391 IRIDIUM 158 1 43571U 18061C 26161.14692653 .00000087 00000+0 23906-4 0 9996 2 43571 86.3965 59.7015 0002256 82.5233 277.6219 14.34217747412353 IRIDIUM 165 1 43572U 18061D 26161.17229391 .00000117 00000+0 34738-4 0 9994 2 43572 86.3969 59.7370 0002087 85.8792 274.2642 14.34216524412388 IRIDIUM 155 1 43573U 18061E 26161.13424152 .00000015 00000+0 -18406-5 0 9996 2 43573 86.3963 59.6224 0002179 82.1285 278.0158 14.34217679412341 IRIDIUM 154 1 43574U 18061F 26161.18498217 .00000030 00000+0 37347-5 0 9996 2 43574 86.3970 59.7346 0002055 87.6554 272.4878 14.34217664412406 IRIDIUM 163 1 43575U 18061G 26161.16594531 .00000089 00000+0 24746-4 0 9993 2 43575 86.3965 59.6581 0002311 83.4755 276.6704 14.34215792412373 IRIDIUM 156 1 43576U 18061H 26161.14058221 .00000207 00000+0 66767-4 0 9994 2 43576 86.3962 59.6756 0002121 79.6572 280.4863 14.34216203412364 IRIDIUM 164 1 43577U 18061J 26161.19132475 .00000069 00000+0 17433-4 0 9996 2 43577 86.3968 59.6949 0002103 88.4982 271.6455 14.34217424412419 IRIDIUM 159 1 43578U 18061K 26161.15961143 .00000195 00000+0 62447-4 0 9990 2 43578 86.3965 59.6452 0002318 84.6354 275.5106 14.34217068412370 IRIDIUM 180 1 43922U 19002A 26161.08933934 .00000026 00000+0 23103-5 0 9998 2 43922 86.3972 356.5657 0002249 89.0318 271.1136 14.34217790387973 IRIDIUM 176 1 43923U 19002B 26161.09034047 .00000685 00000+0 10465-3 0 9993 2 43923 86.6093 356.5097 0002220 91.0035 269.1437 14.72257570398208 IRIDIUM 168 1 43924U 19002C 26161.01322901 .00000035 00000+0 53422-5 0 9996 2 43924 86.3975 356.6745 0002185 89.0579 271.0868 14.34217656387944 IRIDIUM 173 1 43925U 19002D 26161.27961677 .00000049 00000+0 10544-4 0 9996 2 43925 86.3971 356.4522 0002231 86.5648 273.5803 14.34217309387966 IRIDIUM 169 1 43926U 19002E 26160.39243543 .00000237 00000+0 71085-4 0 9990 2 43926 86.4233 28.4526 0002129 70.4730 289.6698 14.38610903389108 IRIDIUM 172 1 43927U 19002F 26161.27327221 .00000121 00000+0 36167-4 0 9999 2 43927 86.3971 356.4627 0002270 88.7888 271.3568 14.34218975387972 IRIDIUM 175 1 43928U 19002G 26161.06708629 .00000291 00000+0 80005-4 0 9990 2 43928 86.4506 293.4976 0001575 207.3618 152.7500 14.43608837397959 IRIDIUM 171 1 43929U 19002H 26161.25424469 .00000074 00000+0 19351-4 0 9994 2 43929 86.3980 356.7760 0001993 87.0396 273.1028 14.34218833387965 IRIDIUM 170 1 43930U 19002J 26161.02855600 .00000687 00000+0 10509-3 0 9991 2 43930 86.6091 356.5379 0002359 87.8824 272.2663 14.72257926398200 IRIDIUM 167 1 43931U 19002K 26161.24790388 .00000038 00000+0 65073-5 0 9995 2 43931 86.3972 356.4957 0001856 86.8125 273.3284 14.34217696387961 IRIDIUM 181 1 56726U 23068S 26161.17352037 .00000266 00000+0 73099-4 0 9994 2 56726 86.4503 59.7223 0002309 90.1501 269.9965 14.43310833161422 IRIDIUM 177 1 56727U 23068T 26161.22438760 .00000629 00000+0 79352-4 0 9990 2 56727 86.1960 332.0994 0002435 87.8726 272.2774 14.80216816165337 IRIDIUM 174 1 56728U 23068U 26161.28807164 .00000700 00000+0 10714-3 0 9991 2 56728 86.6099 356.5762 0002560 85.1310 275.0199 14.72254305165001 IRIDIUM 178 1 56729U 23068V 26161.14591586 .00000849 00000+0 10829-3 0 9996 2 56729 86.6544 28.3030 0002679 88.2537 271.8991 14.80221547165325 IRIDIUM 179 1 56730U 23068W 26161.14054037 .00000842 00000+0 10741-3 0 9999 2 56730 86.6785 37.2641 0002401 87.2454 272.9042 14.80238313165329